RH
76 77 77 77 79 78 84 86 88 88 88 87 87 87 86 85 87 89 96 93 97 100 98 93 92 93 92 97 96 100 99 98 100 100 100 100 100 94 87 55 59 86 98 98 98 100 98 42 39 59 46 38 38 35
76 76 75 79 78 79 77 84 88 90 89 88 88 87 87 86 85 85 98 88 85 94 99 86 80 86 87 94 95 96 99 98 100 99 92 98 100 99 92 92 49 85 74 79 83 83 52 43 45 39 39 40 39 36
78 78 76 78 82 79 79 80 84 90 90 89 88 88 87 85 84 84 98 96 96 98 98 93 79 62 73 82 89 99 98 96 98 98 100 100 100 99 100 94 69 72 62 76 76 59 46 47 44 42 39 40 34 32
83 84 84 84 83 84 82 82 83 88 90 89 90 89 88 87 85 83 97 92 82 86 98 98 71 73 71 75 81 80 80 94 94 98 100 100 100 99 100 97 95 72 74 80 85 69 60 60 56 56 47 43 44 44
89 89 89 89 87 86 85 83 85 85 89 86 88 88 89 88 86 91 96 89 74 57 97 92 79 72 74 75 78 82 86 89 99 100 100 100 99 100 100 100 99 81 84 91 96 76 76 68 61 58 66 61 52 56
90 91 92 91 91 89 87 85 86 85 90 87 88 90 91 89 85 96 100 96 87 73 84 92 82 85 77 79 81 86 93 95 98 100 100 100 93 90 100 92 49 47 58 64 85 91 88 83 81 72 61 46 41 41
93 93 93 94 93 90 88 84 85 86 90 88 89 89 88 88 95 98 96 88 84 81 94 94 79 82 80 78 85 86 83 97 98 100 100 98 98 98 100 90 42 40 45 45 57 58 67 57 57 48 49 43 47 42
91 92 94 95 92 90 88 86 84 90 88 89 89 88 87 88 91 96 93 85 72 95 91 96 87 74 81 87 91 90 93 98 100 100 100 99 97 100 100 67 47 38 37 44 49 52 44 37 37 42 49 48 52 50
88 88 90 90 90 88 86 88 89 88 88 87 92 85 94 96 100 100 90 89 95 91 100 87 68 80 72 78 78 96 96 97 95 100 98 97 95 97 67 50 42 38 46 47 42 43 42 46 46 45 54 57 56 63
89 91 90 92 90 89 90 91 94 89 87 85 91 98 100 100 90 87 96 100 100 100 94 73 46 74 64 73 92 88 100 91 90 75 88 99 65 46 37 37 42 45 46 44 54 58 60 59 52 54 59 57 58 79
88 90 91 91 90 90 91 89 86 82 78 80 98 100 99 86 92 100 100 100 98 99 92 72 53 76 64 80 81 60 84 82 88 66 82 69 57 48 44 49 50 51 48 47 46 44 46 50 56 67 94 98 98 99
89 86 86 87 88 88 86 84 84 84 77 71 88 92 90 83 97 95 92 84 77 59 77 79 76 68 85 72 72 93 89 82 78 63 88 75 53 52 57 67 62 63 58 54 50 52 62 76 88 97 99 99 98 97
88 87 87 87 87 82 82 85 83 81 68 62 69 98 94 87 95 86 92 73 77 69 81 86 95 86 95 79 82 87 95 84 60 85 70 49 46 45 53 62 70 71 73 81 86 93 97 99 98 100 100 100 100 99
89 85 85 85 83 84 86 86 83 67 48 69 79 92 91 94 75 64 54 58 66 68 77 74 91 88 88 92 93 100 69 69 86 85 65 60 72 78 73 76 82 90 93 95 98 96 98 99 99 100 100 100 99 97
76 78 80 79 85 85 82 80 75 54 54 65 61 81 81 80 81 82 80 76 79 79 87 94 91 82 89 98 78 74 87 79 64 61 67 85 86 75 76 86 95 96 98 87 79 90 94 94 87 94 94 87 86 93
71 71 69 80 81 82 79 64 52 50 59 62 66 84 79 89 99 97 96 94 77 81 76 82 90 93 88 82 86 78 67 66 63 70 86 76 75 76 88 96 97 93 86 80 73 73 79 88 83 76 74 77 86 85
67 56 74 79 81 79 71 52 48 55 60 58 90 80 82 85 99 94 83 80 70 80 87 71 89 72 76 77 70 60 74 68 86 86 79 73 76 86 89 96 100 100 80 72 70 70 73 68 66 64 72 70 64 67
55 55 75 78 72 65 56 56 54 57 58 72 75 88 82 88 95 87 80 75 80 82 72 73 60 72 80 68 66 68 79 81 80 82 86 84 83 86 85 89 94 76 71 83 84 83 78 76 65 68 62 58 59 57
71 70 73 75 72 54 55 56 56 58 64 75 78 77 84 88 83 80 83 83 89 73 81 78 76 70 65 58 63 74 79 77 84 91 92 90 88 96 98 95 90 84 86 80 65 67 66 64 63 59 57 53 57 60
76 72 73 77 72 52 50 56 59 56 59 65 71 70 72 80 81 91 94 100 99 95 95 93 73 73 74 76 76 76 77 76 84 90 93 94 91 86 82 74 74 72 74 71 69 67 62 60 54 54 57 59 64 68
70 63 72 63 59 56 50 58 55 51 57 66 67 73 80 82 88 91 89 90 96 92 82 79 87 86 92 87 85 77 80 76 79 74 82 92 87 79 81 79 74 72 73 73 75 75 68 67 58 58 79 84 84 80
58 70 60 60 58 58 56 50 50 55 62 64 80 73 84 94 92 86 84 92 85 72 73 76 75 81 90 96 95 79 87 71 71 75 82 84 90 89 88 87 82 85 78 81 70 78 69 58 62 68 80 87 78 82
74 70 64 58 68 69 71 57 62 57 72 78 78 77 77 82 70 66 85 65 67 68 66 64 73 73 82 95 83 83 88 73 75 75 80 78 78 80 82 81 78 84 80 71 64 69 73 76 82 82 82 81 82 86
77 73 85 79 69 78 73 83 62 63 68 69 73 79 68 72 70 76 72 63 69 67 66 88 71 79 80 82 80 81 78 68 70 75 76 74 77 78 74 73 72 73 70 66 65 74 75 85 85 78 83 85 87 85
78 82 84 84 76 88 93 89 81 70 86 70 69 78 81 74 83 76 72 67 75 82 78 74 70 65 74 82 82 81 86 68 70 78 80 67 76 81 81 75 71 70 70 84 85 84 86 86 85 84 82 83 81 83
91 81 88 77 84 84 82 92 93 89 80 83 76 69 82 87 91 84 64 76 89 86 99 100 92 76 72 68 76 78 76 67 66 73 76 70 72 86 87 86 86 82 67 78 83 82 82 82 84 83 87 88 87 82
87 90 67 56 57 61 80 74 63 76 88 84 81 91 90 91 84 68 63 67 72 80 73 71 67 66 67 71 69 71 70 68 74 72 72 67 66 64 77 85 80 76 71 78 80 78 80 84 85 82 86 86 84 82
75 70 92 83 78 63 84 82 85 85 74 60 74 94 89 76 62 67 70 86 85 76 80 85 80 75 71 73 78 83 85 84 86 77 71 70 71 77 80 82 79 77 77 78 81 80 79 81 84 84 83 85 90 85
86 69 75 96 93 82 81 80 76 68 62 70 84 79 76 61 82 88 92 90 88 86 90 93 96 92 88 84 84 81 84 82 83 82 80 87 86 88 81 83 81 80 81 84 88 81 80 84 86 85 84 86 87 84
87 69 81 92 92 86 84 75 85 89 72 73 71 75 73 84 87 90 93 94 90 91 93 93 94 95 96 93 96 95 92 92 87 82 82 84 82 89 88 87 86 84 82 84 88 88 90 92 92 90 88 88 87 87
77 83 89 82 86 90 98 94 95 94 92 88 93 91 83 91 92 92 92 92 93 96 96 97 96 93 92 92 91 92 93 89 81 80 83 86 89 88 87 84 85 84 84 86 88 88 89 87 86 85 84 85 86 84
93 89 93 97 94 90 90 96 97 94 94 91 93 93 95 96 90 93 96 95 97 98 93 92 93 95 88 88 87 88 77 85 83 82 82 85 86 86 84 83 85 82 84 85 86 86 84 83 84 83 85 85 84 84
93 92 91 88 89 89 92 92 88 92 94 89 92 93 93 88 80 94 92 91 94 94 92 89 90 90 87 84 85 87 80 81 80 81 83 83 84 84 86 86 84 84 83 84 85 84 83 82 84 84 84 86 86 84
Wind_Speed
17 18 17 15 12 8 8 5 6 14 17 18 18 17 20 20 21 9 3 6 5 2 1 1 2 2 3 4 7 2 3 4 7 10 6 5 7 10 10 25 20 17 12 15 16 16 27 9 17 26 14 12 8 8
17 14 14 14 12 10 5 5 6 11 12 15 17 18 19 21 22 17 3 5 4 2 2 2 1 3 4 6 2 3 4 2 4 5 8 4 5 5 10 15 19 14 15 13 16 13 16 7 16 18 20 16 8 7
21 18 14 14 11 10 8 7 5 7 12 15 16 18 20 22 22 20 5 6 4 4 2 4 8 10 10 10 6 1 1 4 4 4 3 1 8 3 7 12 14 10 8 13 8 18 21 11 11 5 6 10 7 5
23 22 20 17 14 12 9 10 8 7 11 15 17 18 19 21 23 18 5 7 6 4 4 2 3 5 2 11 15 13 8 4 3 1 1 2 4 3 1 5 5 5 4 10 11 13 6 7 9 12 9 6 6 6
22 21 20 19 17 14 11 10 11 9 10 13 16 18 21 22 22 8 6 8 6 4 3 2 3 3 4 9 13 14 10 7 2 2 3 3 2 3 2 1 3 3 3 4 2 5 4 3 4 3 6 9 10 9
24 22 21 20 18 16 13 12 11 8 10 11 13 17 22 23 24 5 2 7 4 3 3 3 3 1 3 5 10 11 8 4 3 2 2 3 3 5 5 5 9 13 13 10 2 3 4 8 9 7 9 12 11 12
23 22 14 12 17 17 12 11 10 8 12 12 12 16 22 24 8 4 2 9 10 5 2 2 3 2 1 4 3 4 7 3 3 2 5 3 4 5 3 6 15 13 13 10 5 2 10 13 11 13 16 14 7 11
23 22 20 17 16 16 12 10 8 9 12 14 14 18 19 21 13 2 1 20 11 6 1 3 4 5 6 4 3 1 3 2 4 2 2 3 3 3 6 17 22 19 17 12 10 15 20 18 17 14 9 7 8 9
20 22 20 18 17 15 11 8 9 14 16 19 30 24 6 4 2 2 21 13 4 2 5 5 6 5 4 3 2 2 1 4 2 4 4 4 5 8 13 15 18 19 12 14 13 15 18 16 16 16 10 10 9 9
19 18 16 13 12 10 11 18 28 30 28 22 6 3 3 3 23 9 5 3 2 1 1 3 3 5 5 5 4 2 2 4 5 5 3 5 9 23 19 15 15 11 10 13 15 15 11 13 11 10 10 8 8 9
17 20 23 23 22 23 29 26 20 17 7 3 3 3 4 2 3 2 3 3 3 3 4 3 7 6 4 6 4 3 2 2 4 4 4 3 6 5 6 7 8 8 11 14 15 14 10 8 5 7 7 6 8 9
16 17 19 19 16 16 13 8 6 2 2 7 10 5 3 3 2 2 3 4 4 4 6 6 6 3 4 3 4 4 4 3 6 4 3 4 3 4 6 7 8 8 7 6 5 3 2 5 7 8 7 7 8 10
16 14 14 13 11 18 18 17 13 12 4 4 4 3 2 2 4 6 8 4 4 7 8 7 6 5 3 3 3 5 6 5 2 3 5 4 3 6 6 4 3 3 5 7 10 11 10 9 8 8 9 8 8 7
12 12 16 17 9 7 13 14 11 2 1 2 2 4 3 4 4 2 2 3 3 3 8 7 6 3 3 5 3 5 2 3 5 5 5 2 5 5 4 2 4 6 8 9 9 10 11 11 11 10 9 7 7 8
7 10 9 15 13 13 11 9 6 3 2 2 0 1 1 3 2 2 2 4 3 7 8 5 4 2 3 3 4 3 5 6 5 4 1 4 4 2 2 4 5 7 7 9 9 10 10 10 12 11 8 8 8 7
9 5 7 13 14 13 12 6 2 1 2 1 2 3 2 2 3 3 3 5 5 7 5 2 3 4 5 3 6 7 5 6 2 0 1 0 1 1 4 5 6 7 9 9 10 10 10 9 10 11 10 9 8 7
7 2 11 11 12 9 7 3 2 3 2 1 2 1 2 1 1 3 4 4 7 7 4 3 6 5 3 4 5 5 4 0 2 0 1 2 3 5 7 8 7 7 8 8 10 10 10 10 9 9 10 8 8 7
2 5 13 13 9 2 1 2 2 2 1 1 1 2 2 1 1 2 3 5 6 4 4 3 3 5 5 4 3 3 3 3 2 2 2 3 6 7 7 10 7 8 9 9 9 8 8 7 8 6 7 6 4 3
8 10 11 9 5 2 1 2 2 2 1 1 1 1 0 0 2 2 3 4 1 2 3 3 4 4 5 3 3 3 4 4 5 4 3 4 7 8 8 8 8 9 9 8 8 5 6 7 6 5 4 3 3 3
13 8 3 6 5 3 4 2 1 2 2 2 2 4 3 2 3 4 4 3 4 3 5 5 4 2 2 1 1 2 5 6 7 7 6 5 6 9 9 8 7 9 8 8 7 7 6 5 4 4 4 4 3 3
5 1 3 2 3 3 2 3 4 2 2 3 2 3 2 3 3 4 4 3 5 3 4 4 3 2 2 2 2 3 7 8 8 6 9 7 7 7 7 7 7 5 6 5 5 5 4 4 3 3 3 3 3 3
2 3 1 1 3 3 3 2 1 3 3 1 3 4 3 4 4 4 4 5 4 4 3 4 3 5 5 5 6 7 9 9 6 5 7 9 8 7 7 7 7 6 5 5 5 5 4 4 3 3 3 3 3 4
5 2 2 2 2 3 2 2 6 6 5 3 3 3 3 3 3 4 4 4 4 4 5 4 5 4 5 5 6 7 8 9 7 7 8 6 6 5 6 6 6 7 6 5 5 5 5 4 4 4 4 3 3 3
2 3 4 4 5 3 2 5 3 4 4 4 4 3 3 3 4 4 5 4 5 5 7 8 8 7 5 7 7 8 8 6 7 6 7 8 7 6 6 5 5 4 5 6 5 5 5 4 4 4 3 3 4 3
4 5 5 5 3 4 6 6 5 5 4 6 6 3 3 3 3 4 4 3 6 7 7 8 9 8 8 7 6 7 4 7 8 8 5 5 8 7 6 5 5 5 6 6 6 6 5 4 4 4 4 4 5 5
6 6 7 8 5 6 6 7 8 6 4 5 6 3 3 4 5 7 4 1 3 5 7 8 9 8 6 7 9 8 8 6 6 7 6 6 6 7 8 8 7 5 4 3 6 7 6 5 5 6 6 6 5 5
6 7 4 4 3 3 3 2 3 3 6 6 5 8 6 5 7 3 1 1 0 0 4 7 7 7 7 7 6 6 6 5 3 6 8 6 5 3 5 6 7 6 7 6 5 6 7 7 7 6 6 5 4 3
6 6 7 7 4 4 4 4 6 7 5 4 7 6 6 5 2 2 2 2 2 1 5 6 5 3 6 7 7 9 8 9 11 11 10 8 7 5 6 6 7 11 8 5 5 4 5 6 7 7 6 6 5 3
4 4 6 4 3 4 5 7 5 4 4 5 5 4 3 1 1 0 1 1 2 4 6 6 5 6 7 7 6 6 8 9 12 14 12 7 6 4 4 7 7 7 7 7 7 6 7 6 7 7 7 6 6 5
5 6 4 5 4 7 4 3 1 2 1 1 1 2 1 2 2 1 2 3 5 5 5 5 6 7 9 9 9 6 3 2 2 6 8 7 6 9 8 8 8 7 7 7 8 10 12 11 11 8 7 6 6 6
3 5 3 4 3 1 1 2 2 1 1 2 0 1 1 1 2 2 3 3 4 6 7 7 7 7 9 10 10 10 7 3 3 5 5 8 10 10 9 9 8 7 7 8 8 8 8 7 7 7 7 7 7 6
5 6 5 5 3 3 3 3 2 2 2 3 3 2 2 2 3 4 5 6 7 7 8 8 8 8 7 6 6 3 7 9 7 7 12 10 10 11 10 9 8 8 8 8 8 8 9 9 7 8 8 8 7 7
3 3 3 4 4 5 4 4 3 3 2 3 2 1 1 2 2 2 2 3 3 5 6 7 5 8 9 8 7 7 9 8 10 11 13 14 15 13 10 8 8 9 10 9 8 8 9 10 9 8 8 8 8 8
Wind_Direction
330 326 327 323 332 343 357 305 230 198 193 189 186 192 192 194 190 183 132 174 132 109 186 81 67 73 33 7 210 83 106 230 187 219 213 206 226 201 238 240 224 187 188 214 223 222 245 217 226 211 235 276 290 250
320 315 311 306 303 311 300 307 248 216 195 188 190 192 195 195 194 181 147 180 137 117 72 328 57 150 119 115 56 4 356 14 1 253 212 180 198 200 217 243 222 219 209 202 201 224 246 255 236 233 242 260 257 242
312 304 294 282 263 256 257 244 255 227 206 198 197 192 199 195 200 192 141 140 89 117 175 221 221 216 190 184 139 351 317 26 50 6 333 3 267 127 206 233 250 228 232 234 219 226 248 256 238 247 221 237 208 176
305 297 289 281 271 261 242 228 227 241 213 196 198 199 199 196 198 184 161 165 131 128 222 174 190 200 163 184 183 186 222 193 120 107 175 251 274 352 320 317 287 237 191 230 251 262 267 264 240 239 235 199 210 227
300 288 274 262 245 238 226 221 208 222 220 198 197 203 200 194 193 154 133 181 176 203 171 135 163 156 155 189 206 204 203 204 152 176 202 225 254 270 225 300 249 262 268 232 276 325 249 327 12 132 215 235 242 250
310 295 271 243 230 216 209 193 183 207 196 196 210 196 185 181 176 127 134 210 170 128 154 169 89 123 170 195 194 204 196 181 164 203 211 219 264 228 240 230 249 241 244 228 211 78 346 307 291 272 272 277 267 275
339 334 313 215 192 184 185 168 171 188 178 172 170 162 168 174 145 157 163 145 148 127 128 164 174 95 152 159 182 199 203 197 180 210 212 212 208 208 257 232 253 237 242 245 205 213 249 240 250 260 245 250 274 263
17 26 47 94 134 149 142 142 173 172 155 147 152 151 153 115 91 87 10 147 129 92 165 205 139 175 182 157 171 209 184 185 195 222 224 207 194 214 245 236 252 259 260 261 231 223 248 268 264 254 259 235 222 223
37 47 55 83 104 115 129 148 151 138 134 121 110 106 75 58 118 164 111 87 58 120 174 198 173 143 150 135 101 143 197 228 170 236 222 198 197 220 233 240 245 259 240 240 254 239 253 253 260 260 240 231 210 165
41 48 53 71 98 112 129 102 109 110 115 110 67 72 105 218 115 87 39 89 112 267 255 197 153 140 169 163 156 200 176 237 233 200 144 225 252 249 260 258 263 266 270 260 254 244 252 257 253 243 223 209 174 149
49 57 71 80 89 95 104 111 110 117 93 71 75 65 100 135 91 94 129 142 134 149 159 188 216 144 204 155 156 222 253 228 261 132 248 238 257 306 329 306 311 314 284 263 262 267 269 275 245 182 120 109 121 118
58 62 70 70 66 72 73 85 87 49 43 107 109 111 165 122 100 124 104 128 204 181 159 178 175 112 137 145 167 160 237 225 248 115 232 248 269 337 341 336 335 315 289 278 268 252 71 79 96 112 121 131 122 121
49 50 42 43 83 109 68 71 83 116 177 86 82 102 184 85 160 187 171 183 189 169 171 166 152 125 132 203 156 193 220 227 91 219 236 249 355 345 333 339 31 65 93 93 88 91 85 77 81 105 104 87 86 89
21 40 38 31 64 66 14 13 26 118 161 119 144 128 234 164 223 187 181 130 81 139 149 160 121 117 118 178 164 222 182 170 234 228 230 214 20 346 354 71 117 94 91 88 82 88 92 92 84 72 73 86 104 107
15 13 22 12 2 357 345 354 13 14 50 72 68 122 137 72 66 85 90 115 87 140 148 115 87 166 149 182 206 194 200 229 236 250 53 25 345 349 128 117 110 108 97 93 98 98 99 103 102 94 86 92 97 102
345 124 21 353 355 351 333 341 8 22 79 103 95 121 131 181 153 172 151 124 143 147 120 98 142 186 192 199 191 208 213 223 214 25 85 251 183 125 115 95 103 109 107 102 104 107 102 98 104 99 87 81 76 83
329 85 357 346 343 335 352 311 314 35 39 131 116 57 161 100 108 167 174 166 163 164 184 172 193 182 120 208 215 198 224 93 96 143 267 221 171 140 124 115 109 110 113 112 111 104 100 104 112 107 95 89 87 83
33 349 341 336 339 325 85 3 307 313 288 142 223 142 160 89 144 174 179 165 163 203 189 201 130 204 206 213 207 204 168 126 123 131 127 133 130 135 133 123 116 122 114 104 107 109 108 113 104 94 98 93 100 76
321 314 317 314 301 303 216 171 270 253 197 148 113 107 67 29 248 266 204 177 175 200 171 187 214 220 215 216 236 159 155 163 158 132 110 115 127 120 118 116 117 115 116 124 125 106 94 82 86 84 73 44 23 25
307 297 313 310 220 223 200 164 258 253 221 147 186 188 201 200 157 200 179 156 160 186 201 211 221 218 236 154 184 170 152 156 142 143 128 125 138 140 141 145 135 134 124 117 107 114 115 103 82 62 35 32 17 37
299 78 329 235 190 254 284 179 195 215 160 222 153 199 194 177 184 182 174 160 202 225 200 209 213 124 104 98 162 157 159 164 171 165 158 155 161 149 143 135 138 139 140 141 132 113 99 88 80 65 59 56 57 45
288 325 248 201 209 187 259 202 286 134 191 88 183 212 211 203 178 186 143 199 234 217 208 193 172 163 175 189 191 186 169 175 149 129 116 141 156 161 161 156 156 149 145 145 140 131 115 99 83 76 79 92 72 60
300 233 222 199 168 203 200 203 200 185 189 193 188 208 208 207 175 158 227 220 227 203 193 176 150 156 141 143 158 156 165 170 160 157 155 153 147 152 149 157 154 152 146 135 129 132 113 101 107 104 104 104 99 89
156 225 206 207 211 182 173 192 206 186 179 186 188 218 202 180 164 223 245 224 202 170 186 175 161 140 138 159 176 169 171 181 156 147 158 154 146 148 150 144 144 141 135 137 134 125 128 112 137 108 103 102 75 71
184 209 198 195 188 166 187 178 185 193 191 198 184 204 180 175 213 238 241 239 197 193 184 179 185 193 181 170 164 165 178 180 167 155 166 158 126 131 133 132 125 120 136 139 145 142 131 129 130 127 114 96 99 97
218 202 201 193 174 193 180 171 187 177 155 172 196 133 153 183 226 236 230 234 206 190 184 182 179 174 176 178 166 168 167 174 160 150 141 157 160 161 159 161 159 151 164 145 148 147 143 144 141 134 115 105 99 120
232 210 200 220 195 173 161 133 151 159 180 187 168 173 179 213 230 230 122 152 131 189 196 190 187 189 174 150 125 115 124 120 98 106 114 105 88 102 153 164 173 134 146 143 140 153 152 156 151 141 122 118 119 112
222 191 188 182 190 186 164 174 182 190 187 171 156 186 198 212 257 73 30 40 333 124 85 68 73 124 145 137 125 123 106 108 105 107 101 83 68 71 81 81 94 116 114 116 120 128 139 149 147 145 141 129 119 114
198 180 151 161 173 192 213 195 208 209 162 175 195 195 210 194 81 164 112 143 186 142 126 119 95 107 105 107 109 114 136 145 144 147 147 140 145 110 99 114 117 111 114 105 86 96 113 129 135 131 124 116 115 122
189 176 171 171 187 206 199 204 184 112 136 103 82 116 158 160 127 97 149 160 167 164 140 134 143 158 149 145 137 132 120 131 168 160 165 167 158 132 139 133 129 126 124 111 109 110 110 111 113 115 119 127 128 127
166 182 170 176 218 168 100 128 127 137 153 159 114 254 110 131 159 150 186 167 139 135 139 148 161 161 158 155 158 154 157 165 120 94 99 117 131 138 137 134 132 129 125 130 133 132 135 132 128 130 131 125 126 134
182 200 169 169 181 149 163 202 175 189 166 192 165 152 166 208 236 168 164 159 166 173 175 170 169 172 169 150 138 109 131 135 145 133 132 131 132 132 131 127 128 129 130 132 129 134 137 134 136 133 132 133 134 130
148 165 165 156 154 181 169 189 177 164 187 196 169 204 224 272 249 99 138 215 207 190 171 165 137 134 144 140 124 115 122 116 123 127 128 125 129 131 128 131 131 131 134 132 130 133 135 139 138 136 132 135 141 141